Regional Weather Roundup
Issued by NWS

Home | Current Version | Previous Version | Text Only | Print | Product List | Glossary Off
Versions: 1 2 3 4 5 6 7 8 9 10 11 12 13 14 15 16 17 18 19 20 21 22 23 24 25 26 27 28 29 30 31 32 33 34 35 36 37 38 39 40 41 42 43 44 45 46 47 48 49 50

000
ASUS43 KDMX 300004
RWRIA

WEATHER ROUNDUP FOR IOWA
NATIONAL WEATHER SERVICE DES MOINES IA
  ISSUED BY NWS QUAD CITIES IA IL
600 PM CST THU JAN 29 2015

NOTE: "FAIR" INDICATES FEW OR NO CLOUDS BELOW 12,000 FEET WITH NO
SIGNIFICANT WEATHER AND/OR OBSTRUCTIONS TO VISIBILITY.

* - THESE STATIONS ARE NOT NWS STATIONS...THUS NOT UNDER NWS
QUALITY CONTROL.  THEY ALSO DO NOT REPORT WEATHER SUCH
AS PRECIPITATION OR FOG.

IAZ001>003-012>014-020>022-031>034-043>046-300100-
   NORTHWEST IOWA

CITY           SKY/WX    TMP DP  RH WIND       PRES   REMARKS
CARROLL *      CLOUDY    32  23  69 NW21      30.43R WCI  20
CHEROKEE *     CLOUDY    30  24  78 N9G23     30.46R WCI  22
6HR MIN TEMP:  30; 6HR MAX TEMP:  33;

DENNISON *     CLOUDY    32  25  74 NW16      30.43S WCI  21
LE MARS *      CLOUDY    30  23  74 N15G21    30.49R WCI  19
ORANGE CITY *  CLOUDY    28  21  74 N14       30.46R WCI  17
SHELDON *      CLOUDY    27  21  80 N17G26    30.45R WCI  14
SIOUX CITY     CLOUDY    32  22  66 N20       30.48R WCI  20
6HR MIN TEMP:  32; 6HR MAX TEMP:  36;

SPENCER        CLOUDY    28  19  69 N24       30.45R WCI  14
6HR MIN TEMP:  28; 6HR MAX TEMP:  33;

STORM LAKE *   CLOUDY    28  23  80 N22       30.44R WCI  15
$$

IAZ055>058-069>071-079>083-090>094-300100-
   SOUTHWEST IOWA

CITY           SKY/WX    TMP DP  RH WIND       PRES   REMARKS
ATLANTIC *     CLOUDY    34  25  69 N8G16     30.46R WCI  27
AUDUBON *      CLOUDY    32  25  74 N15G21    30.45R WCI  22
CLARINDA *     CLOUDY    36  25  64 NW15G21   30.48R WCI  26
COUNCIL BLFS * CLOUDY    34  25  69 N10G16    30.45R WCI  26
CRESTON *      CLOUDY    32  23  69 NW17      30.43R WCI  21
HARLAN *       CLOUDY    34  28  80 NW8       30.49R WCI  27
LAMONI         CLOUDY    32  22  66 NW15G23   30.43R WCI  22
6HR MIN TEMP:  32; 6HR MAX TEMP:  37;

RED OAK *      CLOUDY    36  23  60 N12       30.47R WCI  27
SHENANDOAH *   CLOUDY    36  25  64 N10       30.49R WCI  28
$$

IAZ047>049-059>061-072>074-084-300100-
   CENTRAL IOWA

CITY           SKY/WX    TMP DP  RH WIND       PRES   REMARKS
AMES           CLOUDY    30  20  66 NW21G26   30.41R WCI  17
6HR MIN TEMP:  30; 6HR MAX TEMP:  35;

ANKENY *       CLOUDY    32  21  64 NW18G26   30.42R WCI  20
BOONE *        CLOUDY    30  21  69 NW23G32   30.39R WCI  17
CHARITON *     LGT RAIN  32  23  69 NW22G31   30.41R WCI  19
DES MOINES     CLOUDY    32  21  64 NW21G30   30.42R WCI  20
6HR MIN TEMP:  32; 6HR MAX TEMP:  37;

GRINNELL *     CLOUDY    30  23  74 NW26G33   30.37R WCI  16
6HR MIN TEMP:  30; 6HR MAX TEMP:  34;

KNOXVILLE *    CLOUDY    32  21  64 NW16G25   30.39R WCI  21
MARSHALLTOWN   CLOUDY    29  21  72 NW24G36   30.38R WCI  15
6HR MIN TEMP:  29; 6HR MAX TEMP:  34;

NEWTON *       CLOUDY    30  21  69 NW22G32   30.40R WCI  17
PELLA *        CLOUDY    32  23  70 NW23G33   30.41R WCI  19
6HR MIN TEMP:  32; 6HR MAX TEMP:  36;

PERRY *          N/A     32  24  72 NW21      30.43R WCI  20
6HR MIN TEMP:  32; 6HR MAX TEMP:  36;

$$

IAZ004>006-015-016-023>025-035-036-300100-
   NORTH CENTRAL IOWA

CITY           SKY/WX    TMP DP  RH WIND       PRES   REMARKS
ALGONA *       CLOUDY    27  19  74 N17G29    30.43R WCI  14
CLARION *      CLOUDY    27  21  80 N25G31    30.41R WCI  11
ESTHERVILLE    MOCLDY    23  17  78 NW25G31   30.44R WCI   7
6HR MIN TEMP:  23; 6HR MAX TEMP:  30;

FORT DODGE *   CLOUDY    28  19  69 NW14G21   30.43R WCI  17
6HR MIN TEMP:  28; 6HR MAX TEMP:  36;

MASON CITY     CLOUDY    24  17  74 NW23      30.40R WCI   9
6HR MIN TEMP:  24; 6HR MAX TEMP:  33;

WEBSTER CITY * MIX PCPN  28  23  80 N29G36    30.40R WCI  13
IOWA FALLS *   CLOUDY    28  21  76 NW26G32   30.39R WCI  13
6HR MIN TEMP:  28; 6HR MAX TEMP:  33;

$$

IAZ007>011-017>019-026>030-037>042-050>054-066-300100-
   NORTHEAST IOWA

CITY           SKY/WX    TMP DP  RH WIND       PRES   REMARKS
CEDAR RAPIDS   CLOUDY    32  23  69 NW23G32   30.31R WCI  19
6HR MIN TEMP:  32; 6HR MAX TEMP:  34;

CHARLES CITY * CLOUDY    27  19  74 NW18G29   30.35R WCI  13
CLINTON *      CLOUDY    34  23  64 NW21G32   30.28R WCI  22
6HR MIN TEMP:  34; 6HR MAX TEMP:  36;

DECORAH *      CLOUDY    28  18  64 NW17G31   30.28R WCI  16
DUBUQUE        CLOUDY    32  22  66 NW20      30.24R WCI  20
6HR MIN TEMP:  32; 6HR MAX TEMP:  34;

MONTICELLO *   CLOUDY    32  23  69 NW21G32   30.28R WCI  20
OELWEIN *      CLOUDY    30  23  74 NW26G33   30.31R WCI  16
WATERLOO       CLOUDY    29  20  69 NW24G32   30.34R WCI  15
6HR MIN TEMP:  29; 6HR MAX TEMP:  33;

$$

IAZ064-065-067-068-078-300100-
   EAST CENTRAL IOWA

CITY           SKY/WX    TMP DP  RH WIND       PRES   REMARKS
DAVENPORT      CLOUDY    33  24  69 NW17G35   30.27R WCI  22
6HR MIN TEMP:  33; 6HR MAX TEMP:  35;

IOWA CITY      CLOUDY    33  22  63 NW21G31   30.33R WCI  21
6HR MIN TEMP:  33; 6HR MAX TEMP:  36;

MT. PLEASANT * CLOUDY    33  25  73 NW14G24   30.34R WCI  23
6HR MIN TEMP:  32; 6HR MAX TEMP:  35;

MUSCATINE *    CLOUDY    36  25  64 NW17G24   30.33R WCI  25
QUAD CITIES    CLOUDY    34  25  69 NW21G30   30.27R WCI  22
6HR MIN TEMP:  34; 6HR MAX TEMP:  36;

$$

IAZ062-063-075>077-085>089-095>099-300100-
   SOUTHEAST IOWA

CITY           SKY/WX    TMP DP  RH WIND       PRES   REMARKS
BURLINGTON     CLOUDY    34  25  69 NW22G31   30.32R WCI  22
6HR MIN TEMP:  34; 6HR MAX TEMP:  38;

FAIRFIELD *    CLOUDY    34  25  69 NW20      30.35R WCI  22
FORT MADISON * CLOUDY    34  27  75 NW24G32   30.33R WCI  21
KEOKUK *       CLOUDY    36  27  69 NW13G23   30.33R WCI  27
OTTUMWA        CLOUDY    33  22  63 NW30G37   30.38R WCI  19
6HR MIN TEMP:  33; 6HR MAX TEMP:  35;

WASHINGTON *   CLOUDY    34  28  80 NW20G26   30.34R WCI  22
$$

ABBREVIATIONS USED IN REMARKS
   TC - TEMPERATURES IN CELSIUS
  WCI - WIND CHILL INDEX
   HX - HEAT INDEX
  VSB - VISIBILITY
$$



USA.gov is the U.S. government's official web portal to all federal, state and local government web resources and services.